Tracking 25648 objects as of 17-May-2022
HD Live streaming from Space Station
objects crossing your sky now

COSMOS 2251 DEB

Track COSMOS 2251 DEB now!
10-day predictions


NORAD ID: 33905
Int'l Code: 1993-036DJ
Perigee: 758.0 km
Apogee: 850.9 km
Inclination: 73.9 °
Period: 100.8 minutes
Semi major axis: 7175 km
RCS: 0.025 m2 (small)
Launch date: June 16, 1993
Source: Commonwealth of Independent States (former USSR) (CIS)
Launch site: PLESETSK MISSILE AND SPACE COMPLEX (PKMTR)

Note: This is SATELLITE DEBRIS
aabbcc
Your satellite tracking list
Your tracking list is empty




NASA's NSSDC Master Catalog

Two Line Element Set (TLE):
1 33905U 93036DJ  22136.44510852  .00000964  00000-0  38807-3 0  9992
2 33905  73.8884 198.4443 0064716 349.6267  23.0669 14.28335350689973
Source of the keplerian elements: AFSPC